Flag for Mexico Weather past 2 weeks in Cozumel, Quintana Roo, Mexico

Now
72 °F

Passing clouds.


Feels Like: 65 °F
Forecast: 81 / 87 °F
Wind: No wind

Location: Cozumel Civ / Mil

Current Time: Sep 30, 2014 at 5:44:21 AM

Latest Report: Sep 30, 2014 at 4:45 AM


Visibility: 7 mi

Pressure: 29.85 "Hg

Humidity: 100%

Dew point: 72 °F

Location of CozumelLocation

Historic Weather in Cozumel — Graph

°F

Cozumel temperature yesterday

Maximum temperature yesterday: 84 °F (at 11:41 AM)
Minimum temperature yesterday: 70 °F (at 6:40 AM)
Average temperature yesterday: 77 °F

Past Weeks' High & Low Weather Summary

 TemperatureHumidityPressure
High86 °F (Sep 15, 12:44 PM)100% (Sep 15, 4:52 AM)30.07 "Hg (Sep 15, 4:52 AM)
Low68 °F (Sep 18, 5:53 AM)66% (Sep 18, 1:43 PM)29.81 "Hg (Sep 27, 4:49 PM)
Average77 °F93%29.92 "Hg
* Reported Sep 15 4:52 AM — Sep 30 4:45 AM, Cozumel, Weather by CustomWeather, © 2014

Note: Actual official high and low records may vary slightly from our data, if they occured in-between our weather recording intervals... More about our weather records

Advertising

Cozumel weather history for previous 24 hours

 ConditionsComfort  
Time TempWeatherWind HumidityBarometerVisibility
4:45 AM
Sep 30
72 °FPassing clouds.No wind100%29.85 "Hg7 mi
3:40 AM72 °FClear.No wind100%29.86 "Hg7 mi
3:14 AM72 °FClear.No wind100%29.84 "Hg7 mi
1:40 AM72 °FPassing clouds.No wind100%29.86 "Hg7 mi
12:48 AM73 °FPassing clouds.8 mph100%29.86 "Hg7 mi
11:41 PM
Sep 29
72 °FClear.No wind100%29.90 "Hg7 mi
10:46 PM73 °FClear.No wind100%29.89 "Hg7 mi
9:51 PM73 °FClear.No wind100%29.90 "Hg7 mi
8:45 PM75 °FClear.No wind100%29.87 "Hg7 mi
7:53 PM75 °FClear.3 mph100%29.85 "Hg7 mi
6:54 PM77 °FScattered clouds.3 mph100%29.82 "Hg7 mi
5:46 PM81 °FScattered clouds.6 mph84%29.83 "Hg8 mi
4:44 PM82 °FPartly sunny.6 mph79%29.82 "Hg8 mi
3:42 PM84 °FPartly sunny.6 mph79%29.85 "Hg8 mi
2:49 PM84 °FPartly sunny.6 mph79%29.83 "Hg8 mi
1:43 PM84 °FPartly sunny.8 mph79%29.85 "Hg8 mi
12:42 PM84 °FPartly sunny.7 mph79%29.86 "Hg8 mi
11:41 AM84 °FPartly sunny.10 mph74%29.90 "Hg8 mi
10:41 AM82 °FPartly sunny.7 mph79%29.90 "Hg8 mi
9:41 AM82 °FScattered clouds.8 mph84%29.91 "Hg8 mi
8:45 AM79 °FScattered clouds.6 mph94%29.89 "Hg8 mi
7:40 AM75 °FScattered clouds.5 mph100%29.88 "Hg8 mi
6:40 AM70 °FPassing clouds.No wind100%29.84 "Hg7 mi
5:43 AM72 °FPassing clouds.No wind100%29.86 "Hg7 mi
Weather by CustomWeather, © 2014

See weather overviewHow to use our weather pages